Time,TemperatureF,DewpointF,PressureIn,WindDirection,WindDirectionDegrees,WindSpeedMPH,WindSpeedGustMPH,Humidity,HourlyPrecipIn,Conditions,Clouds,dailyrainin,SolarRadiationWatts/m^2,SoftwareType,DateUTC
2017-08-18 00:05:00,66.4,60.4,30.03,North,-9999,0.0,0.0,81,0.00,,,0.00,0,Graphweather,2017-08-17 22:05:00,
2017-08-18 00:15:00,66.1,60.1,30.04,North,-9999,0.0,0.0,81,0.00,,,0.00,0,Graphweather,2017-08-17 22:15:00,
2017-08-18 00:24:00,65.9,60.2,30.03,North,-9999,0.0,0.0,82,0.00,,,0.00,0,Graphweather,2017-08-17 22:24:00,
2017-08-18 00:30:00,65.8,60.1,30.03,North,-9999,0.0,0.0,82,0.00,,,0.00,0,Graphweather,2017-08-17 22:30:00,
2017-08-18 00:39:00,65.6,60.0,30.03,North,-9999,0.0,0.0,82,0.00,,,0.00,0,Graphweather,2017-08-17 22:39:00,
2017-08-18 00:44:00,65.5,59.9,30.03,North,-9999,0.0,0.0,82,0.00,,,0.00,0,Graphweather,2017-08-17 22:44:00,
2017-08-18 00:49:00,65.4,60.1,30.03,North,-9999,0.0,0.0,83,0.00,,,0.00,0,Graphweather,2017-08-17 22:49:00,
2017-08-18 00:54:00,65.3,60.0,30.03,North,-9999,0.0,0.0,83,0.00,,,0.00,0,Graphweather,2017-08-17 22:54:00,
2017-08-18 00:59:00,65.2,59.9,30.03,North,-9999,0.0,0.0,83,0.00,,,0.00,0,Graphweather,2017-08-17 22:59:00,
2017-08-18 01:04:00,65.0,59.7,30.03,North,-9999,0.0,0.0,83,0.00,,,0.00,0,Graphweather,2017-08-17 23:04:00,
2017-08-18 01:09:00,64.9,59.6,30.03,North,-9999,0.0,0.0,83,0.00,,,0.00,0,Graphweather,2017-08-17 23:09:00,
2017-08-18 01:15:00,64.8,59.5,30.03,North,-9999,0.0,0.0,83,0.00,,,0.00,0,Graphweather,2017-08-17 23:15:00,
2017-08-18 01:20:00,64.7,59.4,30.03,North,-9999,0.0,0.0,83,0.00,,,0.00,0,Graphweather,2017-08-17 23:20:00,
2017-08-18 01:25:00,64.6,59.7,30.03,North,-9999,0.0,0.0,84,0.00,,,0.00,0,Graphweather,2017-08-17 23:25:00,
2017-08-18 01:30:00,64.4,59.5,30.03,North,-9999,0.0,0.0,84,0.00,,,0.00,0,Graphweather,2017-08-17 23:30:00,
2017-08-18 01:35:00,64.3,59.4,30.03,North,-9999,0.0,0.0,84,0.00,,,0.00,0,Graphweather,2017-08-17 23:35:00,
2017-08-18 01:40:00,64.2,59.3,30.03,North,-9999,0.0,0.0,84,0.00,,,0.00,0,Graphweather,2017-08-17 23:40:00,
2017-08-18 01:45:00,64.1,59.2,30.03,North,-9999,0.0,0.0,84,0.00,,,0.00,0,Graphweather,2017-08-17 23:45:00,
2017-08-18 01:50:00,64.0,59.1,30.03,North,-9999,0.0,0.0,84,0.00,,,0.00,0,Graphweather,2017-08-17 23:50:00,
2017-08-18 01:55:00,63.9,59.0,30.03,North,-9999,0.0,0.0,84,0.00,,,0.00,0,Graphweather,2017-08-17 23:55:00,
2017-08-18 02:00:00,63.8,59.2,30.03,North,-9999,0.0,0.0,85,0.00,,,0.00,0,Graphweather,2017-08-18 00:00:00,
2017-08-18 02:05:00,63.7,58.8,30.04,North,-9999,0.0,0.0,84,0.00,,,0.00,0,Graphweather,2017-08-18 00:05:00,
2017-08-18 02:10:00,63.6,59.0,30.03,North,-9999,0.0,0.0,85,0.00,,,0.00,0,Graphweather,2017-08-18 00:10:00,
2017-08-18 02:15:00,63.5,58.9,30.03,North,-9999,0.0,0.0,85,0.00,,,0.00,0,Graphweather,2017-08-18 00:15:00,
2017-08-18 02:20:00,63.3,58.7,30.03,North,-9999,0.0,0.0,85,0.00,,,0.00,0,Graphweather,2017-08-18 00:20:00,
2017-08-18 02:25:00,63.2,58.6,30.03,North,-9999,0.0,0.0,85,0.00,,,0.00,0,Graphweather,2017-08-18 00:25:00,
2017-08-18 02:30:00,63.1,58.5,30.03,North,-9999,0.0,0.0,85,0.00,,,0.00,0,Graphweather,2017-08-18 00:30:00,
2017-08-18 02:35:00,63.0,58.4,30.03,North,-9999,0.0,0.0,85,0.00,,,0.00,0,Graphweather,2017-08-18 00:35:00,
2017-08-18 02:40:00,62.9,58.6,30.03,North,-9999,0.0,0.0,86,0.00,,,0.00,0,Graphweather,2017-08-18 00:40:00,
2017-08-18 02:45:00,62.8,58.5,30.03,West,270,0.0,1.0,86,0.00,,,0.00,0,Graphweather,2017-08-18 00:45:00,
2017-08-18 02:50:00,62.7,58.4,30.03,North,-9999,0.0,0.0,86,0.00,,,0.00,0,Graphweather,2017-08-18 00:50:00,
2017-08-18 02:55:00,62.5,58.3,30.03,North,-9999,0.0,0.0,86,0.00,,,0.00,0,Graphweather,2017-08-18 00:55:00,
2017-08-18 03:01:00,62.4,58.2,30.03,North,-9999,0.0,0.0,86,0.00,,,0.00,0,Graphweather,2017-08-18 01:01:00,
2017-08-18 03:10:00,62.2,58.3,30.03,North,-9999,0.0,0.0,87,0.00,,,0.00,0,Graphweather,2017-08-18 01:10:00,
2017-08-18 03:15:00,62.2,58.3,30.02,North,-9999,0.0,0.0,87,0.00,,,0.00,0,Graphweather,2017-08-18 01:15:00,
2017-08-18 03:20:00,62.1,58.2,30.02,North,-9999,0.0,0.0,87,0.00,,,0.00,0,Graphweather,2017-08-18 01:20:00,
2017-08-18 03:25:00,62.0,58.1,30.02,West,270,1.0,4.0,87,0.00,,,0.00,0,Graphweather,2017-08-18 01:25:00,
2017-08-18 03:30:00,61.9,58.0,30.02,West,270,1.0,3.0,87,0.00,,,0.00,0,Graphweather,2017-08-18 01:30:00,
2017-08-18 03:35:00,61.8,57.9,30.02,West,270,1.0,3.0,87,0.00,,,0.00,0,Graphweather,2017-08-18 01:35:00,
2017-08-18 03:45:00,61.7,57.8,30.02,West,270,1.0,3.0,87,0.00,,,0.00,0,Graphweather,2017-08-18 01:45:00,
2017-08-18 03:54:00,61.6,58.0,30.02,North,-9999,0.0,0.0,88,0.00,,,0.00,0,Graphweather,2017-08-18 01:54:00,
2017-08-18 03:59:00,61.6,58.0,30.02,North,-9999,0.0,0.0,88,0.00,,,0.00,0,Graphweather,2017-08-18 01:59:00,
2017-08-18 04:04:00,61.5,57.9,30.02,North,-9999,0.0,0.0,88,0.00,,,0.00,0,Graphweather,2017-08-18 02:04:00,
2017-08-18 04:09:00,61.5,57.9,30.02,West,270,0.0,3.0,88,0.00,,,0.00,0,Graphweather,2017-08-18 02:09:00,
2017-08-18 04:15:00,61.5,57.9,30.02,West,270,1.0,2.0,88,0.00,,,0.00,0,Graphweather,2017-08-18 02:15:00,
2017-08-18 04:25:00,61.4,57.8,30.02,West,270,1.0,3.0,88,0.00,,,0.00,0,Graphweather,2017-08-18 02:25:00,
2017-08-18 04:30:00,61.4,57.8,30.02,North,-9999,0.0,0.0,88,0.00,,,0.00,0,Graphweather,2017-08-18 02:30:00,
2017-08-18 04:35:00,61.4,58.1,30.02,North,-9999,0.0,0.0,89,0.00,,,0.00,0,Graphweather,2017-08-18 02:35:00,
2017-08-18 04:40:00,61.3,58.0,30.02,West,270,1.0,3.0,89,0.00,,,0.00,0,Graphweather,2017-08-18 02:40:00,
2017-08-18 04:45:00,61.3,58.0,30.02,West,270,0.0,2.0,89,0.00,,,0.00,0,Graphweather,2017-08-18 02:45:00,
2017-08-18 04:50:00,61.3,58.0,30.02,West,270,0.0,3.0,89,0.00,,,0.00,0,Graphweather,2017-08-18 02:50:00,
2017-08-18 04:55:00,61.3,58.0,30.02,West,270,1.0,4.0,89,0.00,,,0.00,0,Graphweather,2017-08-18 02:55:00,
2017-08-18 05:00:00,61.3,58.0,30.02,West,270,0.0,2.0,89,0.00,,,0.00,0,Graphweather,2017-08-18 03:00:00,
2017-08-18 05:05:00,61.3,58.0,30.02,West,270,1.0,4.0,89,0.00,,,0.00,0,Graphweather,2017-08-18 03:05:00,
2017-08-18 05:25:00,61.1,58.1,30.03,West,270,1.0,3.0,90,0.00,,,0.00,0,Graphweather,2017-08-18 03:25:00,
2017-08-18 05:30:00,61.1,58.1,30.03,West,270,0.0,1.0,90,0.00,,,0.00,0,Graphweather,2017-08-18 03:30:00,
2017-08-18 05:35:00,61.0,58.0,30.03,West,270,1.0,3.0,90,0.00,,,0.00,0,Graphweather,2017-08-18 03:35:00,
2017-08-18 05:40:00,61.0,58.0,30.03,West,270,2.0,3.0,90,0.00,,,0.00,0,Graphweather,2017-08-18 03:40:00,
2017-08-18 05:45:00,61.0,58.0,30.03,West,270,1.0,3.0,90,0.00,,,0.00,0,Graphweather,2017-08-18 03:45:00,
2017-08-18 05:50:00,60.9,57.9,30.03,West,270,1.0,3.0,90,0.00,,,0.00,0,Graphweather,2017-08-18 03:50:00,
2017-08-18 05:55:00,60.9,57.9,30.03,West,270,0.0,2.0,90,0.00,,,0.00,0,Graphweather,2017-08-18 03:55:00,
2017-08-18 06:00:00,60.9,57.9,30.03,West,270,2.0,4.0,90,0.00,,,0.00,0,Graphweather,2017-08-18 04:00:00,
2017-08-18 06:05:00,60.8,57.8,30.03,West,270,2.0,3.0,90,0.00,,,0.00,0,Graphweather,2017-08-18 04:05:00,
2017-08-18 06:15:00,60.8,57.8,30.03,West,270,0.0,3.0,90,0.00,,,0.00,0,Graphweather,2017-08-18 04:15:00,
2017-08-18 06:20:00,60.8,57.8,30.03,North,-9999,0.0,0.0,90,0.00,,,0.00,0,Graphweather,2017-08-18 04:20:00,
2017-08-18 06:25:00,60.7,57.7,30.03,West,270,1.0,3.0,90,0.00,,,0.00,0,Graphweather,2017-08-18 04:25:00,
2017-08-18 06:30:00,60.7,58.1,30.03,West,270,0.0,1.0,91,0.00,,,0.00,0,Graphweather,2017-08-18 04:30:00,
2017-08-18 06:35:00,60.7,58.1,30.03,West,270,0.0,3.0,91,0.00,,,0.00,0,Graphweather,2017-08-18 04:35:00,
2017-08-18 06:40:00,60.7,58.1,30.03,West,270,1.0,3.0,91,0.00,,,0.00,0,Graphweather,2017-08-18 04:40:00,
2017-08-18 06:45:00,60.6,58.0,30.03,West,270,1.0,3.0,91,0.00,,,0.00,0,Graphweather,2017-08-18 04:45:00,
2017-08-18 06:50:00,60.6,58.0,30.03,West,270,0.0,3.0,91,0.00,,,0.00,2,Graphweather,2017-08-18 04:50:00,
2017-08-18 06:55:00,60.6,58.0,30.03,West,270,0.0,3.0,91,0.00,,,0.00,5,Graphweather,2017-08-18 04:55:00,
2017-08-18 07:00:00,60.6,58.0,30.03,West,270,1.0,3.0,91,0.00,,,0.00,7,Graphweather,2017-08-18 05:00:00,
2017-08-18 07:05:00,60.6,58.0,30.03,West,270,1.0,3.0,91,0.00,,,0.00,9,Graphweather,2017-08-18 05:05:00,
2017-08-18 07:10:00,60.6,58.0,30.03,West,270,1.0,3.0,91,0.00,,,0.00,11,Graphweather,2017-08-18 05:10:00,
2017-08-18 07:15:00,60.6,58.0,30.03,West,270,0.0,2.0,91,0.00,,,0.00,14,Graphweather,2017-08-18 05:15:00,
2017-08-18 07:20:00,60.7,58.1,30.02,West,270,0.0,2.0,91,0.00,,,0.00,14,Graphweather,2017-08-18 05:20:00,
2017-08-18 07:25:00,60.8,58.2,30.03,West,270,1.0,3.0,91,0.00,,,0.00,17,Graphweather,2017-08-18 05:25:00,
2017-08-18 07:30:00,60.8,58.2,30.03,West,270,0.0,1.0,91,0.00,,,0.00,21,Graphweather,2017-08-18 05:30:00,
2017-08-18 07:35:00,60.9,58.6,30.03,West,270,0.0,1.0,92,0.00,,,0.00,26,Graphweather,2017-08-18 05:35:00,
2017-08-18 07:45:00,61.3,59.0,30.03,North,-9999,0.0,0.0,92,0.00,,,0.00,35,Graphweather,2017-08-18 05:45:00,
2017-08-18 07:50:00,61.5,59.2,30.03,North,-9999,0.0,0.0,92,0.00,,,0.00,53,Graphweather,2017-08-18 05:50:00,
2017-08-18 08:01:00,62.0,59.6,30.03,North,-9999,0.0,0.0,92,0.00,,,0.00,85,Graphweather,2017-08-18 06:01:00,
2017-08-18 08:10:00,62.9,60.8,30.03,North,-9999,0.0,0.0,93,0.00,,,0.00,52,Graphweather,2017-08-18 06:10:00,
2017-08-18 08:15:00,63.3,61.2,30.03,North,-9999,0.0,0.0,93,0.00,,,0.00,49,Graphweather,2017-08-18 06:15:00,
2017-08-18 08:20:00,63.6,61.5,30.03,North,-9999,0.0,0.0,93,0.00,,,0.00,90,Graphweather,2017-08-18 06:20:00,
2017-08-18 08:30:00,64.3,62.2,30.03,North,-9999,0.0,0.0,93,0.00,,,0.00,126,Graphweather,2017-08-18 06:30:00,
2017-08-18 08:40:00,64.9,62.5,30.02,West,270,0.0,1.0,92,0.00,,,0.00,255,Graphweather,2017-08-18 06:40:00,
2017-08-18 08:45:00,65.5,63.1,30.02,North,-9999,0.0,0.0,92,0.00,,,0.00,183,Graphweather,2017-08-18 06:45:00,
2017-08-18 08:50:00,66.1,63.7,30.02,West,270,0.0,1.0,92,0.00,,,0.00,286,Graphweather,2017-08-18 06:50:00,
2017-08-18 08:55:00,66.6,64.2,30.02,North,-9999,0.0,0.0,92,0.00,,,0.00,305,Graphweather,2017-08-18 06:55:00,
2017-08-18 09:00:00,67.1,64.4,30.02,West,270,0.0,1.0,91,0.00,,,0.00,321,Graphweather,2017-08-18 07:00:00,
2017-08-18 09:05:00,67.7,64.7,30.02,West,270,0.0,1.0,90,0.00,,,0.00,336,Graphweather,2017-08-18 07:05:00,
2017-08-18 09:15:00,68.7,64.7,30.02,West,270,0.0,1.0,87,0.00,,,0.00,366,Graphweather,2017-08-18 07:15:00,
2017-08-18 09:20:00,69.4,65.0,30.02,West,270,0.0,2.0,86,0.00,,,0.00,381,Graphweather,2017-08-18 07:20:00,
2017-08-18 09:25:00,70.0,64.9,30.01,North,-9999,0.0,0.0,84,0.00,,,0.00,394,Graphweather,2017-08-18 07:25:00,
2017-08-18 09:30:00,70.8,65.4,30.01,West,270,0.0,1.0,83,0.00,,,0.00,407,Graphweather,2017-08-18 07:30:00,
2017-08-18 09:35:00,71.4,65.6,30.01,West,270,0.0,1.0,82,0.00,,,0.00,422,Graphweather,2017-08-18 07:35:00,
2017-08-18 09:40:00,72.1,65.6,30.01,West,270,0.0,1.0,80,0.00,,,0.00,436,Graphweather,2017-08-18 07:40:00,
2017-08-18 09:45:00,72.8,65.9,30.01,West,270,0.0,3.0,79,0.00,,,0.00,451,Graphweather,2017-08-18 07:45:00,
2017-08-18 09:50:00,73.3,66.0,30.01,WSW,247,0.0,1.0,78,0.00,,,0.00,464,Graphweather,2017-08-18 07:50:00,
2017-08-18 09:55:00,73.8,65.7,30.01,WSW,247,1.0,4.0,76,0.00,,,0.00,475,Graphweather,2017-08-18 07:55:00,
2017-08-18 10:00:00,74.2,65.8,30.00,SSW,202,2.0,4.0,75,0.00,,,0.00,488,Graphweather,2017-08-18 08:00:00,
2017-08-18 10:05:00,74.5,66.0,30.00,South,180,2.0,4.0,75,0.00,,,0.00,503,Graphweather,2017-08-18 08:05:00,
2017-08-18 10:10:00,74.8,65.9,30.00,South,180,0.0,2.0,74,0.00,,,0.00,516,Graphweather,2017-08-18 08:10:00,
2017-08-18 10:15:00,75.2,65.5,30.00,South,180,0.0,3.0,72,0.00,,,0.00,529,Graphweather,2017-08-18 08:15:00,